星链-35865(STARLINK-35865)

导读 | 豆包AI

STARLINK-35865是美国SpaceX公司星链(Starlink)星座的卫星,于2026年2月16日由猎鹰9号火箭发射入近地轨道。作为星链组网任务的组成部分,它旨在为全球偏远、网络欠发达区域提供低延迟、高速宽带互联网服务,依托低轨卫星网络优势,弥补地面基础设施覆盖盲区,进一步扩充星链在轨运营卫星规模,巩固全球卫星互联网布局。

基本信息
目录编号:
67826
目录名称:
STARLINK-35865
国际标识:
2026-033F
轨道中心:
EARTH
卫星名称:
星链-35865
卫星全名:
星链-35865(STARLINK-35865)
卫星状态:
在轨 (已飞行47 天)
发射日期:
2026-02-16 UTC
国别 :
美国 (US)
星等 :
--
轨道信息
数据来源 国际轨道数据
星历时间: 2026-04-03T20:46:16+0800
12小时前
查看轨道信息
半长轴: 6861.381km
偏心率: 0.0001877
轨道倾角: 43.001°
近地点辐角 284.141°
升交点赤经 126.724°
平近点角 75.923°
近地点: 481.956km
远地点: 484.532km
周期: 94.271分钟
每日圈数: 15.275152
详细信息
固有亮度:
5
最大亮度:
2.5
卫星平台:
Starlink V1.0
覆盖范围:
全球
运营商:
太空探索技术公司
运营商所在国:
美国
制造商(研发单位):
太空探索技术公司
制造商所在国:
美国
使用方式:
暂无
卫星简介
Starlink 计划是 SpaceX 推出的全球卫星互联网项目,通过发射低轨道卫星,为全球尤其是偏远地区提供高速、低延迟的互联网服务。自 2019 年起,Starlink 已部署数千颗卫星,旨在缩小全球数字鸿沟,推动互联网普及。该项目还为军事、航空等行业提供通信支持,带来广泛经济效益。
2D轨道图
3D轨道图
轨道高度分析图
轨道倾角分析图
轨道综合分析图
查看轨道综合分析图